Location: El Hornillo
(40.2499°N, 5.1036°W)
Time: 18:50:00
(UTC+00:00)

Milstar 3 - Pass Details

Date: 05 August 2024
Orbit: 1098 x 5146 km, 28.2° (Epoch: 18 September)

Event Time Altitude Azimuth Distance (km) Brightness Sun altitude
Rises 19:54:01 0° 244° (WSW) 4,194 6.4 -5.0°
Reaches altitude 10° 19:57:17 10° 234° (SW) 3,039 5.5 -5.6°
Maximum altitude 20:03:07 31° 174° (S) 1,836 3.7 -6.6°
Drops below altitude 10° 20:09:16 10° 114° (ESE) 3,211 4.5 -7.6°
Enters shadow 20:09:44 - 112° (ESE) 3,373 4.6 -7.7°
